Погода в Торопеце

Погода в Торопеце : погода сейчас, прогноз погоды и архив. Всё, что Вы хотите узнать о погоде в Торопеце!

Поиск расширенной информации на нашем сайте:

Другие новости

Новости СМИ2

Главная страница сайта

Новости сайта

02.10.2013

Напоминаем, что на нашем новом сайте вы можете получить высокодетализированные прогнозы погоды по пунктам России, СНГ и мира (включающие важные для авиации метеовеличины, такие как направление и скорость ветра, видимость, явления погоды, количество и форма облачности, нижняя и верхняя граница облачности), а также ознакомиться с разнообразными материалами по авиационной метеорологии и подборкой полезных ссылок на эту тему.

Сайт Метеоцентр.Азия посвящён разработке технологий оптимизации авиаметеорологического обслуживания, включая проектирование и перспективное создание нескольких автоматизированных авиаметеорологических систем:
- система выпуска высокодетальных прогностических карт явлений погоды для нижнего воздушного пространства по России и ближнему зарубежью;
- система верификации прогнозов TAF (выпускаемых синоптиками официальных АМСГ РФ и ближнего зарубежья) и AUTOTAF (выпускаемых сайтом Метеоцентр.Азия) - выявление ошибок, онлайн-сопоставление с фактической погодой METAR, автоматическое внесение коррективов в прогнозы при резком отклонении фактической погоды от прогноза, подсчёт оправдываемости прогнозов по элементам и в целом;
- система обработки, анализа и отображения авиаметеорологической информации для применения провайдерами метеорологической информации.


Погода в Торопеце - сегодня

Время (UTC), дата Ветер
(°,м/с) 
Видим.   Явления Облачность Т
(°С)
Тd
(°С)
f(%) Тe
(°С)
Pmin
(гПа)
dP
(гПа)
Po
(мм)
O2
(г/м3)
Тmin Tmax R s Состояние
почвы
00 25.04.17 тихо ()   20000 м    4/4 600 м 
[Sc]
-1.9 -3 92 -2  1011.8  741  301           
03 25.04.17 050 (СВ) 20000 м    ясно 
-1.1 -3 87 -1  1011.9  0.2  741  300  -2.4         
06 25.04.17 180 (Ю) 20000 м    ясно 
+5.3 -0.5 66 +4  1012.1  0.7  742  293  -2.4        влажная 
09 25.04.17 230 (ЮЗ) 20000 м    6/6 600 м 
[Sc]
+8.8 -2.3 46 +8  1011.6  -0.2  742  290           
12 25.04.17 230 (ЮЗ) 4-12{12}  20000 м    8/8 600 м 
[Sc]
+9.2 -3 42 +8  1011  -0.6  741  289           
15 25.04.17 230 (ЮЗ) 5-11{12}  20000 м    9/9 600 м 
[Sc]
+9.3 -2.1 45 +8  1009.9  -1.1  741  289           
18 25.04.17 230 (ЮЗ) 4{13}  20000 м    9/9 600 м 
[Sc]
+8 +0.9 61 +7  1009.5  -0.5  740  290    +9.9       
21 25.04.17 230 (ЮЗ) 5{12}  20000 м    9/9 600 м кучево-дожд. 
[Cb cap]
+7.6 +1.3 64 +6  1006.5  -2.9  738  289           
00 26.04.17 180 (Ю) 4{12}  20000 м  {ливн. осадки}  9/9 600 м кучево-дожд. 
[Cb cap]
+6.9 +2.4 73 +6  1003.7  -2.8  736  289           
03 26.04.17 230 (ЮЗ) 20000 м  {ливн. осадки}  10/8 600 м кучево-дожд., верхняя 
[Cb cap|Ci sp]
+8.1 +2.5 68 +7  1003.3  -0.4  736  287  +6.6    0.5     
06 26.04.17 230 (ЮЗ) 4{11}  4000 м  ливневой дождь  10/10 600 м кучево-дожд. 
[Cb cap]
+4.6 +2.8 88 +3  1005.9  2.3  737  292  +4.6      мокрая 
09 26.04.17 230 (ЮЗ) 4000 м  слаб. ливневой дождь  10/10 600 м кучево-дожд. 
[Cb cap]
+4.2 +2.5 89 +3  1007.6  1.7  739  293           
12 26.04.17 230 (ЮЗ) 20000 м  {ливн. осадки}  9/9 600 м кучево-дожд. 
[Cb cap]
+4.9 +2.9 87 +4  1008.9  1.3  740  292           
15 26.04.17 230 (ЮЗ) 20000 м    9/9 600 м кучево-дожд. 
[Cb cap]
+5.8 +2.3 78 +5  1009.9  1.1  740  292         
18 26.04.17 230 (ЮЗ) 20000 м    10/4 600 м верхняя 
[Sc|Ci sp]
+4.5 +2.8 89 +4  1010.9  0.8  741  293    +5.8     
21 26.04.17 230 (ЮЗ) 20000 м    10/3 600 м верхняя 
[Sc|Ci sp]
+4.4 +2.9 90 +4  1012.3  1.3  742  294           
00 27.04.17 230 (ЮЗ) 20000 м    10/3 600 м верхняя 
[Sc|Ci sp]
+2.3 +1.7 96 +3  1012.8  0.4  742  296           
03 27.04.17 230 (ЮЗ) 4000 м  дымка  10/10 200 м 
[St]
+1.8 +1.5 98 +1  1013.6  0.7  743  297  +1.1         
06 27.04.17 180 (Ю) 4000 м  дымка  9/9 600 м 
[Sc]
+4.5 +3 90 +4  1013.6  0.3  743  294  +1.1        влажная 
09 27.04.17 160 (Ю) 20000 м    9/9 600 м кучево-дожд. 
[Cb cap]
+6.9 +1.8 70 +6  1013.7  0.3  743  292           
12 27.04.17 160 (Ю) 20000 м    9/9 600 м 
[Sc]
+7.1 +1.8 69 +7  1014.5  0.8  744  292           
15 27.04.17 180 (Ю) 20000 м    9/9 600 м 
[Sc]
+6.5 +1.5 70 +6  1015.7  745  293           
18 27.04.17 160 (Ю) 20000 м    8/8 600 м 
[Sc]
+4.9 +2.1 82 +6  1016.8  0.9  745  295    +7.7       
21 27.04.17 180 (Ю) 10 км    9/9 600 м 
[Sc]
+3 +2 93 +4  1017.4  0.5  746  297           
00 28.04.17 180 (Ю) 10 км    9/9 600 м 
[Sc]
+2 +1.6 97 +3  1019  1.5  747  298           
Время (UTC), дата Ветер
(°,м/с) 
Видим.   Явления Облачность Т
(°С)
Тd
(°С)
f(%) Тe
(°С)
Pmin
(гПа)
dP
(гПа)
Po
(мм)
O2
(г/м3)
Тmin Tmax R s Состояние
почвы

Для получения пояснительной информации подведите курсор к названию столбца.

ПОГОДА в Торопеце - архив

Всё, что Вы хотите узнать о погоде в Торопеце - удобно и подробно!

Выберите нужную дату (начиная с 1 января 2015* года) и нажмите кнопку "Найти".
Будут отображены архивные сводки погоды по пункту Торопец, начиная с указанной даты.


Отображать данные в формате CSV (для использования в таблицах Excel)


Внимание! Наш архив погоды предназначен исключительно для личного некоммерческого использования в познавательных целях. Если Вам необходимы официальные справки о состоянии погоды (для производственных, юридических, коммерческих и т.п. целей), обращайтесь в органы Росгидромета.

*Примечание: данная дата относится к архиву по метеостанциям СССР (Россия, СНГ, Балтия).
Архив по метеостанциям Зарубежной Европы и Азии (кроме Китая) хранится 10 дней, по другим регионам земного шара (Китай, Африка, Америка, Австралия, Океания) - 1 день.

Торопец - район местоположения метеостанции


Название, широта, долгота, высота метеостанции:
Торопец 56.5°ш. 31.6°д. 187 м над ур. моря [Российская Федерация]

Дополнительная информация

В oтличие oт бoльшинства пoгoдных сайтoв мы публикуем пoдрoбную метеoинфoрмацию в детальнoм прoфессиoнальнoм фoрмате.

Характеристики температуры и влажнoсти вoздуха измеряются на высoте 2 м в тени вдали oт зданий и деревьев.
Скoрoсть ветра измеряется на высoте 10 м (на урoвне рoста челoвека скoрoсть ветра ниже в 1.5-2 раза). Если метеoстанция нахoдится в гoрoде или в лесу, тo скoрoсть ветра занижена на 2-4 м/с пo сравнению с oткрытым местoм. Скoрoсть ветра над акватoриями крупных рек и oзёр, а также на вершинах хoлмoв на 2-5 м/с выше, чем в oбычных услoвиях.
Атмoсфернoе давление в разных тoчках местнoсти мoжет значительнo oтличаться oт давления на метеoстанции, в зависимoсти oт услoвий рельефа (при пoдъёме на 10 м давление пoнижается примернo на 1 мм рт.ст.).